This demonstration page uses our WeatherBlox Daily Observations layout. Learn more.

41.55636, -103.73856

Hourly Observations for September 26, 2017

Temp ( °F °C ) Dew Point ( °F °C ) Humidity (%) Winds ( mph kmh ) Pressure ( in mb ) Visibility ( mi km ) Precip ( " mm )
12:53 am 00:53 Cloudy 43 6.1 40 4.4 89 89 ESE 6 9 30.13 1020 10 16.0934 0 0
1:53 am 01:53 Clear 41 5 39 3.9 93 93 ESE 8 13 30.13 1020 10 16.0934 0 0
2:53 am 02:53 Clear 39 3.9 37 2.8 93 93 ESE 6 9 30.13 1020 10 16.0934 0 0
3:53 am 03:53 Clear 39 3.9 36 2.2 89 89 E 7 11 30.12 1020 10 16.0934 0 0
4:53 am 04:53 Clear 38 3.3 36 2.2 93 93 E 6 9 30.12 1020 10 16.0934 0 0
5:53 am 05:53 Clear 37 2.8 35 1.7 93 93 ESE 5 7 30.13 1020 10 16.0934 0 0
6:53 am 06:53 Mostly Sunny 35 1.7 33 0.6 93 93 Calm 30.16 1022 9 14.48406 0 0
7:05 am 07:05 Mostly Cloudy with Mist and Fog 37 2.8 35 1.7 93 93 Calm 30.21 1023 5 8.0467 0 0
7:21 am 07:21 Partly Cloudy 37 2.8 35 1.7 93 93 N 3 6 30.21 1023 10 16.0934 0 0
7:53 am 07:53 Sunny 41 5 38 3.3 89 89 ENE 3 6 30.18 1022 10 16.0934 0 0
8:21 am 08:21 Mostly Sunny 42 5.6 39 3.9 89 89 Calm 30.18 1022 10 16.0934 0 0
8:53 am 08:53 Mostly Sunny 44 6.7 40 4.4 85 85 WSW 3 6 30.18 1022 10 16.0934 0 0
9:53 am 09:53 Sunny 50 10 42 5.6 74 74 WNW 8 13 30.18 1022 10 16.0934 0 0
10:53 am 10:53 Sunny 54 12.2 43 6.1 67 67 WNW 8 13 30.17 1022 10 16.0934 0 0
11:53 am 11:53 Sunny 59 15 41 5 51 51 WNW 7 11 30.16 1021 10 16.0934 0 0
12:53 pm 12:53 Sunny 64 17.8 35 1.7 34 34 undefined N/A 30.13 1020 10 16.0934 0 0
1:53 pm 13:53 Sunny 65 18.3 31 -0.6 28 28 NW 8 13 30.11 1020 10 16.0934 0 0
2:53 pm 14:53 Sunny 65 18.3 32 0 29 29 WSW 7 11 30.11 1020 10 16.0934 0 0
3:53 pm 15:53 Sunny 66 18.9 33 0.6 29 29 W 9 15 30.1 1019 10 16.0934 0 0
4:53 pm 16:53 Sunny 66 18.9 32 0 28 28 WNW 8 13 30.12 1020 10 16.0934 0 0
5:53 pm 17:53 Sunny 63 17.2 33 0.6 33 33 W 6 9 30.15 1021 10 16.0934 0 0
6:53 pm 18:53 Clear 59 15 34 1.1 39 39 WSW 5 7 30.18 1022 10 16.0934 0 0
7:53 pm 19:53 Clear 50 10 39 3.9 66 66 N 5 7 30.21 1023 10 16.0934 0 0
8:53 pm 20:53 Clear 46 7.8 39 3.9 77 77 NNE 6 9 30.23 1024 10 16.0934 0 0
9:53 pm 21:53 Clear 47 8.3 35 1.7 63 63 NNE 10 17 30.22 1023 10 16.0934 0 0
10:53 pm 22:53 Clear 46 7.8 35 1.7 66 66 NNE 10 17 30.23 1024 10 16.0934 0 0
11:53 pm 23:53 Clear 42 5.6 35 1.7 76 76 NNW 5 7 30.24 1024 10 16.0934 0 0

Powered by AerisWeather